Location: Greenwich
(51.4790°N, 0.0090°E)
Time: 23:11:03
(UTC+01:00)

N. Korean satellite - Pass Details

Date: 01 October 2021
Orbit: 450 x 495 km, 97.3° (Epoch: 21 October)

Event Time Altitude Azimuth Distance (km) Brightness Sun altitude
Rises 06:22:32 0° 14° (NNE) 2,545 10.5 -6.8°
Reaches altitude 10° 06:24:36 10° 16° (NNE) 1,668 9.5 -6.5°
Maximum altitude 06:28:11 77° 101° (ESE) 504 6.8 -5.9°
Drops below altitude 10° 06:31:48 10° 190° (S) 1,677 9.2 -5.3°
Sets 06:33:53 0° 191° (SSW) 2,559 10.1 -5.0°
